Terug naar catalogus

STARLINK-11298

ActiefCommunicatieVLEO
NORAD 61211·PAYLOAD·🇺🇸 United States

Gelanceerd Sep 20, 2024 vanaf Vandenberg Space Force Base

Loading…

Volgende Passages (komende 24 uur)

TLE

VersSource: CelesTrak SupGP

Epoch: Sep 15, 2026, 03:36 UTC

1 61211C 24171M   26258.15048611  .00056044  00000+0  46153-3 0  2583
2 61211  53.1563 322.5853 0001266  83.4489 203.1606 15.69687584    13

Volg STARLINK-11298 in realtime met AllMySat

Download on the App Store